Canadian, TX

3:13 PM CDT on September 19, 2017 (GMT -0500)
Hemphill County

Weather History for KHHF - October, 2011

Change the Weather History Date:

Wednesday, October 5, 2011

  Actual Average (KPPA) Record (KPPA)
Temperature  
Mean Temperature 58 °F -  
Max Temperature 64 °F 76 °F 88 °F (1974)
Min Temperature 53 °F 50 °F 35 °F (1985)
Degree Days  
Heating Degree Days 6    
Growing Degree Days 8 (Base 50)    
Moisture  
Dew Point 45 °F    
Average Humidity 59    
Maximum Humidity 94    
Minimum Humidity 34    
Precipitation  
Precipitation 0.06 in - - ()
Sea Level Pressure  
Sea Level Pressure 30.03 in    
Wind  
Wind Speed 9 mph (SSE)    
Max Wind Speed 21 mph    
Max Gust Speed 31 mph    
Visibility 10 miles    
Events Rain    
Averages and records for this station are not official NWS values.
T = Trace of Precipitation, MM = Missing Value Source: NWS Daily Summary

Daily Weather History Graph

Daily Weather History Graph

Search for Another Location

Airport or City:

Trip Planner

Search our weather history database for the weather conditions in past years. The results will help you decide how hot, cold, wet, or windy it might be!

Date:

Astronomy

Oct. 05, 2011 Rise Set
Actual Time 7:39 AM CDT 7:19 PM CDT
Civil Twilight 7:14 AM CDT 7:45 PM CDT
Nautical Twilight 6:44 AM CDT 8:15 PM CDT
Astronomical Twilight 6:14 AM CDT 8:44 PM CDT
Moon 3:51 PM CDT (10/5) 1:39 AM CDT (10/5)
Length of Visible Light 12h 31m
Length of Day
11h 40m
Waxing Gibbous, 66% of the Moon is Illuminated
Oct 5
Waxing Gibbous
Oct 11
Full
Oct 19
Last Quarter
Oct 26
New
Nov 2
First Quarter

Hourly Weather History & Observations

Time (CDT) Temp. Dew Point Humidity Pressure Visibility Wind Dir Wind Speed Gust Speed Precip Events Conditions
12:15 AM 64.4 °F 35.6 °F 34% 30.09 in 10.0 mi South 9.2 mph - N/A   Clear
12:35 AM 64.4 °F 35.6 °F 34% 30.08 in 10.0 mi SSE 10.4 mph - N/A   Clear
1:15 AM 62.6 °F 35.6 °F 37% 30.07 in 10.0 mi SSE 11.5 mph - N/A   Clear
1:35 AM 62.6 °F 35.6 °F 37% 30.08 in 10.0 mi South 9.2 mph - N/A   Clear
1:55 AM 62.6 °F 35.6 °F 37% 30.09 in 10.0 mi South 9.2 mph - N/A   Clear
2:15 AM 62.6 °F 33.8 °F 34% 30.08 in 10.0 mi SSE 8.1 mph - N/A   Clear
2:35 AM 62.6 °F 33.8 °F 34% 30.09 in 10.0 mi South 5.8 mph - N/A   Clear
2:55 AM 60.8 °F 33.8 °F 36% 30.09 in 10.0 mi Calm Calm - N/A   Clear
3:15 AM 55.4 °F 37.4 °F 51% 30.09 in 10.0 mi Calm Calm - N/A   Clear
3:35 AM 53.6 °F 35.6 °F 51% 30.08 in 10.0 mi Calm Calm - N/A   Clear
3:55 AM 55.4 °F 35.6 °F 47% 30.08 in 10.0 mi Calm Calm - N/A   Clear
4:15 AM 55.4 °F 35.6 °F 47% 30.07 in 10.0 mi Calm Calm - N/A   Clear
5:15 AM 55.4 °F 33.8 °F 44% 30.05 in 10.0 mi Calm Calm - N/A   Clear
5:35 AM 55.4 °F 35.6 °F 47% 30.05 in 10.0 mi Calm Calm - N/A   Clear
6:15 AM 57.2 °F 33.8 °F 41% 30.05 in 10.0 mi Calm Calm - N/A   Clear
6:35 AM 59.0 °F 33.8 °F 39% 30.05 in 10.0 mi Calm Calm - N/A   Clear
6:55 AM 57.2 °F 35.6 °F 44% 30.05 in 10.0 mi South 6.9 mph - N/A   Clear
7:15 AM 57.2 °F 35.6 °F 44% 30.05 in 10.0 mi SW 4.6 mph - N/A   Clear
7:35 AM 57.2 °F 35.6 °F 44% 30.05 in 10.0 mi South 11.5 mph - N/A   Clear
7:55 AM 59.0 °F 35.6 °F 42% 30.04 in 10.0 mi SSE 11.5 mph - N/A   Clear
8:15 AM 59.0 °F 35.6 °F 42% 30.04 in 10.0 mi SSE 12.7 mph 17.3 mph N/A   Clear
8:35 AM 60.8 °F 35.6 °F 39% 30.05 in 10.0 mi SSE 12.7 mph - N/A   Clear
8:55 AM 60.8 °F 35.6 °F 39% 30.06 in 10.0 mi South 11.5 mph - N/A   Clear
9:15 AM 60.8 °F 37.4 °F 42% 30.08 in 10.0 mi South 9.2 mph - N/A   Clear
9:35 AM 62.6 °F 37.4 °F 39% 30.07 in 10.0 mi South 9.2 mph - N/A   Clear
9:55 AM 62.6 °F 37.4 °F 39% 30.07 in 10.0 mi South 11.5 mph - N/A   Clear
10:15 AM 62.6 °F 37.4 °F 39% 30.07 in 10.0 mi South 15.0 mph - N/A   Clear
10:35 AM 64.4 °F 37.4 °F 37% 30.07 in 10.0 mi South 13.8 mph 18.4 mph N/A   Clear
10:55 AM 64.4 °F 37.4 °F 37% 30.07 in 10.0 mi South 13.8 mph - N/A   Scattered Clouds
11:15 AM 64.4 °F 41.0 °F 42% 30.08 in 10.0 mi SSW 12.7 mph - N/A Rain Light Rain
11:35 AM 64.4 °F 42.8 °F 45% 30.07 in 10.0 mi SSW 11.5 mph - N/A   Overcast
11:55 AM 64.4 °F 44.6 °F 49% 30.07 in 10.0 mi South 10.4 mph - N/A Rain Light Rain
12:15 PM 60.8 °F 50.0 °F 68% 30.06 in 10.0 mi South 12.7 mph - N/A   Light Drizzle
12:35 PM 60.8 °F 51.8 °F 72% 30.07 in 7.0 mi South 15.0 mph 23.0 mph N/A Rain Rain
12:55 PM 59.0 °F 53.6 °F 82% 30.06 in 7.0 mi South 10.4 mph 18.4 mph 0.02 in Rain Light Rain
1:15 PM 59.0 °F 51.8 °F 77% 30.05 in 10.0 mi South 15.0 mph - N/A   Overcast
1:35 PM 60.8 °F 51.8 °F 72% 30.04 in 10.0 mi SSE 10.4 mph - N/A   Overcast
1:55 PM 62.6 °F 53.6 °F 72% 30.04 in 10.0 mi SSW 18.4 mph 23.0 mph N/A   Overcast
2:15 PM 62.6 °F 51.8 °F 68% 30.02 in 10.0 mi South 17.3 mph 21.9 mph N/A   Overcast
2:35 PM 62.6 °F 51.8 °F 68% 30.01 in 10.0 mi South 16.1 mph - N/A   Overcast
2:55 PM 60.8 °F 53.6 °F 77% 30.01 in 7.0 mi South 17.3 mph 21.9 mph 0.01 in Rain Rain
3:15 PM 60.8 °F 55.4 °F 82% 29.98 in 10.0 mi SSE 15.0 mph - 0.01 in Rain Rain
3:35 PM 60.8 °F 55.4 °F 82% 29.98 in 10.0 mi South 12.7 mph 17.3 mph 0.01 in Rain Light Rain
3:55 PM 62.6 °F 55.4 °F 77% 29.98 in 10.0 mi South 10.4 mph - 0.01 in   Overcast
4:15 PM 62.6 °F 53.6 °F 72% 29.98 in 10.0 mi SSE 19.6 mph 26.5 mph N/A Rain Light Rain
4:35 PM 60.8 °F 55.4 °F 82% 29.93 in 7.0 mi SSE 20.7 mph 31.1 mph 0.02 in Rain Light Rain
5:15 PM 62.6 °F 57.2 °F 82% 29.94 in 10.0 mi SSE 19.6 mph 26.5 mph N/A   Mostly Cloudy
5:55 PM 62.6 °F 59.0 °F 88% 29.95 in 10.0 mi SSE 15.0 mph 20.7 mph N/A   Mostly Cloudy
6:15 PM 64.4 °F 57.2 °F 77% 29.93 in 10.0 mi SSE 16.1 mph 21.9 mph N/A   Scattered Clouds
6:35 PM 64.4 °F 57.2 °F 77% 29.93 in 10.0 mi SE 17.3 mph - N/A   Mostly Cloudy
6:55 PM 64.4 °F 57.2 °F 77% 29.93 in 10.0 mi SSE 16.1 mph 21.9 mph N/A   Overcast
7:15 PM 62.6 °F 57.2 °F 82% 29.93 in 10.0 mi SSE 13.8 mph 20.7 mph N/A   Overcast
7:35 PM 62.6 °F 57.2 °F 82% 29.94 in 10.0 mi SE 11.5 mph - N/A   Scattered Clouds
8:15 PM 60.8 °F 57.2 °F 88% 29.95 in 10.0 mi East 4.6 mph - N/A   Clear
8:35 PM 60.8 °F 59.0 °F 94% 29.95 in 10.0 mi East 5.8 mph - N/A Rain Light Rain
8:55 PM 60.8 °F 59.0 °F 94% 29.95 in 10.0 mi ENE 3.5 mph - N/A   Scattered Clouds
9:15 PM 60.8 °F 59.0 °F 94% 29.95 in 10.0 mi NNE 5.8 mph - N/A Rain Light Rain
9:35 PM 60.8 °F 59.0 °F 94% 29.97 in 10.0 mi NNE 5.8 mph - N/A Rain Rain
9:55 PM 60.8 °F 59.0 °F 94% 29.97 in 5.0 mi East 5.8 mph - 0.05 in Rain Heavy Rain
10:15 PM 60.8 °F 59.0 °F 94% 29.96 in 10.0 mi East 6.9 mph - 0.01 in   Overcast
10:35 PM 60.8 °F 59.0 °F 94% 29.96 in 10.0 mi ESE 8.1 mph - 0.01 in   Mostly Cloudy
10:55 PM 60.8 °F 57.2 °F 88% 29.95 in 10.0 mi ESE 10.4 mph - 0.01 in   Scattered Clouds
11:15 PM 60.8 °F 57.2 °F 88% 29.94 in 10.0 mi ESE 9.2 mph - N/A   Scattered Clouds
11:35 PM 62.6 °F 57.2 °F 82% 29.93 in 10.0 mi SE 13.8 mph 20.7 mph N/A   Scattered Clouds
11:55 PM 62.6 °F 57.2 °F 82% 29.92 in 10.0 mi SSE 15.0 mph 25.3 mph N/A   Scattered Clouds